Weather History for Minneapolis, MN

Change the Weather History Date:

Monday, September 19, 2011

  Actual Average Record
Temperature  
Mean Temperature 63 °F 61 °F  
Max Temperature 75 °F 70 °F 94 °F (1895)
Min Temperature 51 °F 51 °F 33 °F (1991)
Degree Days  
Heating Degree Days 2 6  
Month to date heating degree days 73 66  
Since 1 July heating degree days 73 85  
Cooling Degree Days 0 2  
Month to date cooling degree days 90 56  
Year to date cooling degree days 1003 737  
Growing Degree Days 12 (Base 50)    
Moisture  
Dew Point 48 °F    
Average Humidity 65    
Maximum Humidity 100    
Minimum Humidity 29    
Precipitation  
Precipitation 0.00 in 0.09 in 2.98 in (1907)
Month to date precipitation 0.22 1.98  
Year to date precipitation 24.78 24.15  
Snow  
Snow 0.00 in 0.00 in T in (1927)
Month to date snowfall 0.0 0.0  
Since 1 July snowfall 0.0 0.0  
Since 1 September snowfall 0.0 0.0  
Snow Depth 0.00 in    
Sea Level Pressure  
Sea Level Pressure 29.99 in    
Wind  
Wind Speed 4 mph (WNW)    
Max Wind Speed 14 mph    
Max Gust Speed 18 mph    
Visibility 8 miles    
Events Fog    
T = Trace of Precipitation, MM = Missing Value Source: NWS Daily Summary

Daily Weather History Graph

Daily Weather History Graph

Search for Another Location

Airport:

Trip Planner

Search our weather history database for the weather conditions in past years. The results will help you decide how hot, cold, wet, or windy it might be!

Date:

Astronomy

Sep. 19, 2011 Rise Set
Actual Time 6:56 AM CDT 7:16 PM CDT
Civil Twilight 6:26 AM CDT 7:45 PM CDT
Nautical Twilight 5:52 AM CDT 8:20 PM CDT
Astronomical Twilight 5:16 AM CDT 8:55 PM CDT
Moon 11:06 PM CDT (9/19) 2:04 PM CDT (9/19)
Length of Visible Light 13h 19m
Length of Day
12h 20m
Waning Gibbous, 58% of the Moon is Illuminated
Sep 19
Waning Gibbous
Sep 20
Last Quarter
Sep 27
New
Oct 3
First Quarter
Oct 11
Full

Hourly Weather History & Observations

Time (CDT) Temp. Dew Point Humidity Pressure Visibility Wind Dir Wind Speed Gust Speed Precip Events Conditions
12:53 AM 54.0 °F 52.0 °F 93% 29.96 in 6.0 mi West 3.5 mph - N/A   Scattered Clouds
1:32 AM 53.6 °F 51.8 °F 94% 29.97 in 6.0 mi WNW 4.6 mph - N/A   Scattered Clouds
1:41 AM 51.8 °F 50.0 °F 94% 29.97 in 6.0 mi WNW 3.5 mph - N/A   Mostly Cloudy
1:53 AM 52.0 °F 51.1 °F 97% 29.97 in 5.0 mi Calm Calm - N/A   Mostly Cloudy
2:36 AM 51.8 °F 51.8 °F 100% 29.96 in 5.0 mi Calm Calm - N/A   Scattered Clouds
2:53 AM 54.0 °F 51.1 °F 90% 29.97 in 7.0 mi SW 3.5 mph - N/A   Scattered Clouds
3:53 AM 52.0 °F 51.1 °F 97% 29.98 in 7.0 mi Calm Calm - N/A   Scattered Clouds
4:53 AM 53.1 °F 51.1 °F 93% 29.99 in 7.0 mi Calm Calm - N/A   Scattered Clouds
5:53 AM 52.0 °F 50.0 °F 93% 30.00 in 7.0 mi Calm Calm - N/A   Partly Cloudy
6:53 AM 52.0 °F 50.0 °F 93% 30.01 in 5.0 mi Calm Calm - N/A Fog Patches of Fog
7:30 AM 53.6 °F 51.8 °F 94% 30.00 in 4.0 mi Calm Calm - N/A Fog Patches of Fog
7:53 AM 53.1 °F 52.0 °F 96% 30.01 in 4.0 mi WNW 3.5 mph - N/A   Overcast
8:53 AM 54.0 °F 52.0 °F 93% 30.03 in 4.0 mi WNW 3.5 mph - N/A   Overcast
9:04 AM 55.4 °F 53.6 °F 94% 30.02 in 5.0 mi Variable 3.5 mph - N/A   Overcast
9:34 AM 55.4 °F 51.8 °F 88% 30.03 in 7.0 mi NNE 5.8 mph - N/A   Mostly Cloudy
9:53 AM 57.2 °F 51.8 °F 82% 30.03 in 8.0 mi Variable 4.6 mph - N/A   Mostly Cloudy
10:10 AM 59.0 °F 53.6 °F 82% 30.04 in 8.0 mi Variable 4.6 mph - N/A   Scattered Clouds
10:53 AM 60.1 °F 53.1 °F 78% 30.05 in 9.0 mi Calm Calm - N/A   Partly Cloudy
11:53 AM 64.0 °F 51.1 °F 63% 30.04 in 10.0 mi SW 3.5 mph - N/A   Clear
12:53 PM 68.0 °F 48.9 °F 50% 30.04 in 10.0 mi WSW 5.8 mph - N/A   Clear
1:53 PM 72.0 °F 41.0 °F 33% 30.01 in 10.0 mi NW 9.2 mph - N/A   Clear
2:53 PM 72.0 °F 39.9 °F 31% 30.00 in 10.0 mi NW 10.4 mph - N/A   Partly Cloudy
3:53 PM 73.0 °F 42.1 °F 33% 29.98 in 10.0 mi WNW 9.2 mph - N/A   Scattered Clouds
4:53 PM 73.0 °F 39.9 °F 30% 29.97 in 10.0 mi NW 9.2 mph - N/A   Scattered Clouds
5:53 PM 72.0 °F 39.0 °F 30% 29.96 in 10.0 mi NW 4.6 mph - N/A   Mostly Cloudy
6:53 PM 69.1 °F 39.9 °F 35% 29.96 in 10.0 mi Calm Calm - N/A   Mostly Cloudy
7:53 PM 66.9 °F 43.0 °F 42% 29.96 in 10.0 mi Calm Calm - N/A   Mostly Cloudy
8:53 PM 62.1 °F 46.9 °F 58% 29.97 in 10.0 mi SE 4.6 mph - N/A   Mostly Cloudy
9:53 PM 60.1 °F 46.9 °F 62% 29.95 in 10.0 mi SE 8.1 mph - N/A   Mostly Cloudy
10:53 PM 60.1 °F 45.0 °F 57% 29.94 in 10.0 mi ESE 5.8 mph - N/A   Overcast
11:53 PM 59.0 °F 43.0 °F 55% 29.94 in 10.0 mi SSE 5.8 mph - N/A   Mostly Cloudy